Location: Home
(42.5358°N, 72.7383°W)
Time: 18:25:12
(UTC-04:00)

Explorer 11/Cluster Stage 4 - Pass Details

Date: 05 August 2024
Orbit: 464 x 1208 km, 28.8° (Epoch: 19 September)

Event Time Altitude Azimuth Distance (km) Brightness Sun altitude
Rises 04:39:25 0° 254° (WSW) 4,052 - -11.7°
Reaches altitude 10° 04:42:43 10° 243° (WSW) 3,129 - -11.2°
Exits shadow 04:43:47 14° 237° (WSW) 2,865 8.8 -11.1°
Maximum altitude 04:49:04 27° 190° (S) 2,133 8.4 -10.3°
Drops below altitude 10° 04:55:18 10° 136° (SE) 3,056 9.7 -9.3°
Sets 04:58:29 0° 125° (SE) 3,941 10.5 -8.8°
